STARLINK-4126 (52867 NORAD) Tracking and Keplerian Element Data

This shows tracking and keplerian element data for the satellite.

Feedback or suggestion? Click here.




ElementValue
Catalog52867
NameSTARLINK-4126
Epoch Orbit1629
Epoch Day270.25001157
Epoch Year2022
RAAN277.9571
Inclination53.219
Eccentricity0.0002345
Argument of Perigee38.7643
Mean Anonmoly94.5956
Mean Motion15.08851922
Decay Rate-0.00055329
L11 52867U 22062AP 22270.25001157 -.00055329 00000+0 -34839-2 0 9998
L22 52867 53.2190 277.9571 0002345 38.7643 94.5956 15.08851922 16290

Live tracking and technical data element details for STARLINK-4126 (NORAD 52867). STARLINK-4126 can be tracked NOW for your location showing map with azimuth and elevation plus other details from your city location.

Track the satellite on the map from your city or location and see movement details for azimuth, elevation, latitude, longitude, range, height, and movement on the map or in text.







IsCatalogInMostPopularTable: catalog: 52867, numindb: 5
Update: records affected: 1



GetName: 52867 STARLINK-4126

Hit Count: updated at: Thu, 06 Oct 2022 05:13:14 GMT